Вернуться в каталог

TIANFU DONGPO 10

АктивенСвязьSSO
NORAD 54689·PAYLOAD·🇨🇳 China
Это название спутника еще не подтверждено официальными источниками.

Запущен Dec 9, 2022 с Yellow Sea Launch Area

Loading…

Ближайшие Пролёты (ближайшие 24 часа)

TLE

СвежийSource: Space-Track

Эпоха: Sep 14, 2026, 14:58 UTC

1 54689U 22167H   26257.62422257  .00008537  00000-0  24571-3 0  9997
2 54689  97.7015  71.7023 0005457 141.5404 218.6229 15.36024914209087

Отслеживайте TIANFU DONGPO 10 в реальном времени с AllMySat

Download on the App Store